West Lebanon, NH

4:15 AM EST on February 07, 2016 (GMT -0500)
Lebanon Municipal

Weather History for KLEB - December, 2013

Change the Weather History Date:

Tuesday, December 31, 2013

  Actual Average Record
Temperature  
Mean Temperature 6 °F -  
Max Temperature 14 °F 28 °F 52 °F (1948)
Min Temperature -2 °F 9 °F -21 °F (1963)
Degree Days  
Heating Degree Days 59    
Moisture  
Dew Point -1 °F    
Average Humidity 73    
Maximum Humidity 84    
Minimum Humidity 51    
Precipitation  
Precipitation 0.00 in - - ()
Sea Level Pressure  
Sea Level Pressure 30.11 in    
Wind  
Wind Speed 2 mph (SE)    
Max Wind Speed 10 mph    
Max Gust Speed -    
Visibility 8 miles    
Events Snow    
Averages and records for this station are not official NWS values.
T = Trace of Precipitation, MM = Missing Value Source: NWS Daily Summary

Daily Weather History Graph

Daily Weather History Graph

Search for Another Location

Airport or City:

Trip Planner

Search our weather history database for the weather conditions in past years. The results will help you decide how hot, cold, wet, or windy it might be!

Date:

Astronomy

Dec. 31, 2013 Rise Set
Actual Time 7:22 AM EST 4:22 PM EST
Civil Twilight 6:49 AM EST 4:54 PM EST
Nautical Twilight 6:13 AM EST 5:31 PM EST
Astronomical Twilight 5:38 AM EST 6:05 PM EST
Moon 6:11 AM EST (12/31) 3:56 PM EST (12/31)
Length of Visible Light 10h 05m
Length of Day
8h 59m
Waning Crescent, 1% of the Moon is Illuminated
Dec 31
Waning Crescent
Jan 1
New
Jan 7
First Quarter
Jan 15
Full
Jan 24
Last Quarter

Hourly Weather History & Observations

Time (EST) Temp. Windchill Dew Point Humidity Pressure Visibility Wind Dir Wind Speed Gust Speed Precip Events Conditions
12:53 AM 3.9 °F -5.3 °F -5.1 °F 66% 30.22 in 10.0 mi ENE 4.6 mph - N/A   Clear
1:53 AM 3.0 °F -6.4 °F -5.1 °F 69% 30.22 in 10.0 mi North 4.6 mph - N/A   Clear
2:53 AM -0.9 °F - -6.0 °F 79% 30.22 in 10.0 mi Calm Calm - N/A   Clear
3:53 AM -0.0 °F -9.9 °F -8.0 °F 69% 30.21 in 10.0 mi NNE 4.6 mph - N/A   Clear
4:53 AM -2.9 °F - -9.0 °F 75% 30.19 in 10.0 mi Calm Calm - N/A   Clear
5:53 AM -0.9 °F - -7.1 °F 75% 30.18 in 10.0 mi Calm Calm - N/A   Clear
6:53 AM -0.9 °F -8.9 °F -7.1 °F 75% 30.17 in 10.0 mi SSE 3.5 mph - N/A   Mostly Cloudy
7:53 AM -0.9 °F -12.7 °F -7.1 °F 75% 30.18 in 10.0 mi South 5.8 mph - N/A   Mostly Cloudy
8:53 AM 1.0 °F -6.7 °F -5.1 °F 75% 30.18 in 10.0 mi South 3.5 mph - N/A   Overcast
9:53 AM 5.0 °F - -4.0 °F 66% 30.17 in 10.0 mi Calm Calm - N/A   Mostly Cloudy
10:53 AM 7.0 °F - -6.0 °F 55% 30.14 in 10.0 mi Calm Calm - N/A   Overcast
11:53 AM 9.0 °F - -5.1 °F 53% 30.10 in 10.0 mi Calm Calm - N/A   Overcast
12:53 PM 10.0 °F - -2.9 °F 56% 30.07 in 10.0 mi Calm Calm - N/A   Scattered Clouds
1:53 PM 12.9 °F - -2.0 °F 51% 30.05 in 10.0 mi Calm Calm - N/A   Overcast
2:53 PM 12.9 °F - -0.9 °F 54% 30.06 in 10.0 mi Calm Calm - N/A   Mostly Cloudy
3:53 PM 14.0 °F - 1.9 °F 59% 30.07 in 8.0 mi Calm Calm - N/A   Overcast
4:53 PM 9.0 °F - 3.0 °F 77% 30.08 in 10.0 mi Calm Calm - 0.00 in   Overcast
5:53 PM 9.0 °F - 3.9 °F 80% 30.08 in 7.0 mi Calm Calm - N/A   Overcast
6:10 PM 7.0 °F 0.1 °F 1.9 °F 80% 30.02 in 8.0 mi SSE 3.5 mph - N/A   Mostly Cloudy
6:31 PM 8.1 °F - 1.9 °F 76% 30.02 in 9.0 mi Calm Calm - N/A   Overcast
6:53 PM 5.0 °F - -0.0 °F 80% 30.09 in 10.0 mi Calm Calm - N/A   Partly Cloudy
7:02 PM 3.9 °F - -0.0 °F 84% 30.03 in 5.0 mi Calm Calm - 0.00 in Snow Light Snow
7:53 PM 8.1 °F - 3.0 °F 80% 30.10 in 2.5 mi Calm Calm - 0.00 in Snow Light Snow
8:01 PM 10.0 °F 3.6 °F 5.0 °F 80% 30.04 in 0.8 mi North 3.5 mph - 0.00 in Snow Light Snow
8:34 PM 10.9 °F 4.7 °F 6.1 °F 81% 30.05 in 1.5 mi South 3.5 mph - 0.00 in Snow Light Snow
8:44 PM 10.9 °F 1.4 °F 6.1 °F 81% 30.05 in 2.0 mi South 5.8 mph - 0.00 in Snow Light Snow
8:53 PM 10.9 °F -2.6 °F 6.1 °F 81% 30.12 in 1.8 mi South 10.4 mph - 0.00 in Snow Light Snow
8:55 PM 10.9 °F 0.2 °F 6.1 °F 81% 30.05 in 2.5 mi SSE 6.9 mph - 0.00 in Snow Light Snow
9:21 PM 10.0 °F 0.4 °F 5.0 °F 80% 30.06 in 10.0 mi NE 5.8 mph - 0.00 in   Overcast
9:53 PM 9.0 °F - 3.9 °F 80% 30.13 in 10.0 mi Calm Calm - 0.00 in   Overcast
10:53 PM 1.0 °F - -5.1 °F 75% 30.16 in 10.0 mi Calm Calm - N/A   Mostly Cloudy
11:53 PM -2.0 °F - -7.1 °F 79% 30.16 in 10.0 mi Calm Calm - N/A   Clear